Location: Unspecified
(36.5600°N, 136.6600°E)
Time: 13:37:41
(UTC+09:00)

ISS - Pass Details

Date: 29 June 2024
Orbit: 410 x 424 km, 51.6° (Epoch: 17 July)

Event Time Altitude Azimuth Distance (km) Brightness Sun altitude
Exits shadow 01:28:51 26° 23° (NNE) 863 -1.5 -26.4°
Drops below altitude 10° 01:30:32 10° 38° (NE) 1,486 0.0 -26.3°
Sets 01:32:42 0° 45° (NE) 2,355 1.2 -26.1°
